SOC-i

operational
NORAD ID: 60203 Int'l Des: NNA 2024-125 Owner: UWA Country: US
LEOCIRCULARRETROGRADESSO

About SOC-i

Description loading...

Live Position

Loading 3D Globe...

Upcoming Passes

Altitude History

Altitude vs Time

uPlot chart will show altitude changes over time

Two-Line Element Set

1 60203U 24125A 26061.60560483 .00049343 00000-0 73563-3 0 9992
2 60203 97.2446 277.9599 0011238 243.9706 116.0392 15.54871110 93017
Epoch: Mar 2, 2026 • Age: 27 hours

Current Status

Altitude 409.2 km
Velocity 7.66 km/s
Sub-Earth Point -2.25°S, 74.65°E
Launch Date Jul 4, 2024
Age 1.6 years
Type other

Technical Details

Classification Payload
Mass 2.00 kg
Dry Mass 2.00 kg
Total Mass 2.00 kg
Length 0.20 m
Diameter 0.10 m
Span 0.20 m
Shape Box
Manufacturer UWA
Bus Type Cubesat 2U
Phase Status In Orbit
Owner/State UWA/US

Large Constellations

Loading constellations...